Driggs, ID

4:55 PM MDT on April 30, 2017 (GMT -0600)
Driggs

Weather History for KDIJ - November, 2013

Change the Weather History Date:

Tuesday, November 12, 2013

  Actual Average (KJAC) Record (KJAC)
Temperature  
Mean Temperature 43 °F -  
Max Temperature 61 °F 40 °F 62 °F (1999)
Min Temperature 25 °F 15 °F -11 °F (2014)
Degree Days  
Heating Degree Days 22    
Moisture  
Dew Point 23 °F    
Average Humidity 54    
Maximum Humidity 76    
Minimum Humidity 18    
Precipitation  
Precipitation 0.00 in - - ()
Sea Level Pressure  
Sea Level Pressure 30.40 in    
Wind  
Wind Speed 4 mph (SE)    
Max Wind Speed 10 mph    
Max Gust Speed -    
Visibility 10 miles    
Events      
Averages and records for this station are not official NWS values.
T = Trace of Precipitation, MM = Missing Value Source: NWS Daily Summary

Daily Weather History Graph

Daily Weather History Graph

Search for Another Location

Airport or City:

Trip Planner

Search our weather history database for the weather conditions in past years. The results will help you decide how hot, cold, wet, or windy it might be!

Date:

Astronomy

Nov. 12, 2013 Rise Set
Actual Time 7:15 AM MST 5:01 PM MST
Civil Twilight 6:44 AM MST 5:32 PM MST
Nautical Twilight 6:09 AM MST 6:06 PM MST
Astronomical Twilight 5:35 AM MST 6:40 PM MST
Moon 2:26 PM MST (11/12) 1:59 AM MST (11/12)
Length of Visible Light 10h 47m
Length of Day
9h 46m
Waxing Gibbous, 77% of the Moon is Illuminated
Nov 12
Waxing Gibbous
Nov 17
Full
Nov 25
Last Quarter
Dec 2
New
Dec 9
First Quarter

Hourly Weather History & Observations

Time (MST) Temp. Windchill Dew Point Humidity Pressure Visibility Wind Dir Wind Speed Gust Speed Precip Events Conditions
12:56 AM 31.1 °F - 22.1 °F 69% 30.42 in 10.0 mi Calm Calm - N/A   Clear
1:56 AM 27.1 °F 23.2 °F 20.1 °F 75% 30.44 in 10.0 mi Variable 3.5 mph - N/A   Clear
2:56 AM 27.1 °F 21.8 °F 19.0 °F 72% 30.44 in 10.0 mi East 4.6 mph - N/A   Clear
3:56 AM 27.1 °F - 19.0 °F 72% 30.44 in 10.0 mi Calm Calm - N/A   Clear
4:56 AM 28.0 °F 22.8 °F 19.0 °F 69% 30.48 in 10.0 mi SSE 4.6 mph - N/A   Clear
5:56 AM 26.1 °F - 18.1 °F 72% 30.54 in 10.0 mi Calm Calm - N/A   Clear
6:56 AM 25.2 °F 17.3 °F 17.1 °F 71% 30.53 in 10.0 mi East 6.9 mph - N/A   Clear
7:56 AM 28.0 °F - 18.1 °F 66% 30.54 in 9.0 mi Calm Calm - N/A   Clear
8:56 AM 41.9 °F 39.0 °F 25.2 °F 52% 30.47 in 10.0 mi NE 4.6 mph - N/A   Clear
9:56 AM 47.8 °F - 26.1 °F 43% 30.45 in 10.0 mi East 5.8 mph - N/A   Clear
10:56 AM 54.0 °F - 20.1 °F 27% 30.44 in 9.0 mi SSE 4.6 mph - N/A   Clear
11:56 AM 59.0 °F - 20.1 °F 22% 30.40 in 10.0 mi South 5.8 mph - N/A   Clear
12:56 PM 59.9 °F - 19.0 °F 21% 30.36 in 10.0 mi SSW 9.2 mph - N/A   Clear
1:56 PM 61.9 °F - 18.1 °F 18% 30.35 in 9.0 mi South 6.9 mph - N/A   Clear
2:56 PM 61.9 °F - 18.1 °F 18% 30.33 in 9.0 mi South 8.1 mph - N/A   Clear
3:56 PM 59.0 °F - 22.1 °F 24% 30.34 in 9.0 mi South 9.2 mph - N/A   Clear
4:56 PM 47.8 °F - 29.1 °F 48% 30.37 in 10.0 mi ESE 6.9 mph - N/A   Clear
5:56 PM 39.9 °F 33.9 °F 28.0 °F 63% 30.40 in 10.0 mi East 9.2 mph - N/A   Clear
6:56 PM 37.9 °F 32.7 °F 28.0 °F 68% 30.41 in 10.0 mi East 6.9 mph - N/A   Clear
7:56 PM 34.9 °F 30.8 °F 27.1 °F 73% 30.40 in 10.0 mi East 4.6 mph - N/A   Clear
8:56 PM 34.9 °F 30.8 °F 28.0 °F 76% 30.35 in 10.0 mi East 4.6 mph - N/A   Clear
9:56 PM 36.0 °F 30.3 °F 28.0 °F 73% 30.31 in 10.0 mi ESE 6.9 mph - N/A   Clear
10:56 PM 36.9 °F 31.4 °F 27.1 °F 68% 30.27 in 10.0 mi SE 6.9 mph - N/A   Clear
11:56 PM 43.9 °F 38.3 °F 24.1 °F 46% 30.22 in 10.0 mi SSE 10.4 mph - N/A   Clear